User: anonymous   Login
Location: El Corozo
(10.5833°N, 66.9667°W)
Time: 08:12:19
(UTC+00:00)
Language:

Cosmos 2360 Rocket - Orbit

View from above orbital plane
View from above orbital plane
View from above satellite
View from above satellite

Ground track
Ground track

The orbit data is extracted from the following two-line orbital elements,

1 25407U 98045B   24197.82065665 -.00000126  00000-0 -39877-4 0  9994
2 25407  71.0121   7.1485 0009162 233.2520 126.7763 14.16012879341898
Epoch (UTC): 15 July 2024 19:41:44
Eccentricity: 0.0009162
inclination: 71.0121°
perigee height: 832 km
apogee height: 845 km
right ascension of ascending node: 7.1485°
argument of perigee: 233.2520°
revolutions per day: 14.16012879
mean anomaly at epoch: 126.7763°
orbit number at epoch: 34189

The dashed part of the orbit path shows where the satellite is in the earth's shadow,  

DLR